{"data":{"norad_id":42845,"intl_designator":"2017-042W","name":"LEMUR-2-ZACHARY","alt_names":[],"object_type":"PAYLOAD","status":"ACTIVE","operator":null,"country":"US","launch_date":"2017-07-14","launch_site_code":"TYMSC","launch_vehicle":null,"mission":null,"orbit_class":"UNKNOWN","rcs_meters":null,"size_class":null,"mass_kg":null,"dimensions":null,"purposes":["earth_obs"],"wikipedia_slug":null,"has_3d_model":false,"image_url":null,"decayed_at":null,"tle_current":{"epoch":"2026-05-25T01:35:24.770688Z","epoch_age_seconds":65433,"freshness":"FRESH","line1":"1 42845U 17042W   26145.06625892  .00040487  00000+0  77209-3 0  9993","line2":"2 42845  97.3624 336.2468 0004506 105.6802 254.4946 15.48047556485629","mean_motion":15.48047556,"eccentricity":0.0004506,"inclination_deg":97.3624,"raan_deg":336.2468,"arg_perigee_deg":105.6802,"mean_anomaly_deg":254.4946,"bstar":0.00077209,"rev_number":48562,"period_min":93.020398140792,"perigee_km":419.37378649305,"apogee_km":425.50246479628,"semimajor_km":6800.5751256447,"source":"CELESTRAK","updated_at":"2026-05-25T13:38:13.531097Z"}}}